Terminal Aerodrome Forecast
Issued by NWS Columbia, SC

Home | Current Version | Previous Version | Text Only | Print | Product List | Glossary On
Versions: 1 2 3 4 5 6 7 8 9 10 11 12 13 14 15 16 17 18 19 20 21 22 23 24 25 26 27 28 29 30 31 32 33 34 35 36 37 38 39 40 41
000
FTAK31 PAJN 251638 AAA
TAFAGS
TAF AMD
PAGS 251638Z 2517/2612 VRB05KT P6SM VCSH BKN035 OVC045
      TEMPO 2517/2520 -SHRA BKN025 OVC035
     FM252000 23008KT P6SM BKN050
     FM260300 VRB03KT P6SM BKN070
      AMD LTD TO CLD VIS AND WIND=

USA.gov is the U.S. government's official web portal to all federal, state and local government web resources and services.